Showing default

KINEIS-5A, 62084

Orbit data source: Space-Track

KINEIS-5A, 62084 is a French payload satellite in SSO that was launched on Mon, 25 Nov 2024 UTC via an ELECTRON launch vehicle from the Rocket Lab Launch Complex (RLLC). Payload-class satellites include a variety of spacecraft equipped with specific instruments for various scientific and technological missions. These include communications satellites like Starlink; space stations such as the ISS; scientific satellites like the Hubble; Earth observation satellites from companies like Planet Labs, Umbra, and HawkEye 360; GPS; miniature CubeSats for education and research; and military/defense satellites.

Loading next visibility...
Identifier
62084, 2024-219D
Orbit
SSO
Last TLE update
12 hours ago
Origin
Manufacturer
KINEIS
Mission
Operational Commercial Communications
Bus & Motor
CUBESAT 16U, Unknown motor
Mass
28 kg wet, 28 kg dry
Launch date (UTC)
2024-11-25 (7 months ago)
Launch vehicle
ELECTRON
Launch site
Rocket Lab Launch Complex (RLLC)
Object type
Payload
Rocket body
Debris
Shape & HBR
Box + 2 Pan + 1 Ant, 1.6 m
Radar Cross Section
0.229 m², Medium (>0.1 m² and < 1m²)

Expand to show TLE details & history

TLE from 12 hours ago
0 KINEIS-5A
1 62084U 24219D   25173.09402645  .00000506  00000-0  86012-4 0  9998
2 62084  97.9714 334.5053 0002800  45.1065 315.0370 14.73202317 30780
Epoch: 2025-06-22T02:15Z
TLE epoch observation values (Epoch: 2025-06-22T02:15:23.885Z)
Latitude
-0°
Longitude
30.13219°
Altitude
652.481 km
Speed
7.532 km/s
True Right ascension
22h 18m 01s
True Declination
0° 00' 00"
Sunlit
Object was in daylight at epoch
Visualization orbit readout
Latitude
-38.17837°
Longitude
-155.64791°
Altitude
667.386 km
Speed
7.521 km/s
Apparent Right ascension
11h 41m 14s
Apparent Declination
-42° 28' 02"
Sunlit
Object is in daylight
Visualization observer readout
Local Sidereal Time
01:42:58
Azimuth
106.365° ESE
Elevation
-67.08°
Doppler factor
1
Orbital elements
Apogee altitude
649.884 km
Perigee altitude
645.949 km
Semi-major axis
7,026.054 km
Eccentricity
0.00028
Inclination
97.9714°
RAAN
334.5053°
Arg. of periapsis
45.1065°
True anomaly
Unknown
Mean anomaly
315.037°
Eccentric anomaly
Unknown
Mean motion
3.68533 °/min
Orbital period
97.68 mins
BSTAR
0.000086012
Loading maneuver chart data...
Loading SW <> Apogee altitude chart data...
Loading historical data...
Loading historical data...
Loading historical data...
Loading historical data...
Loading historical data...
Loading historical data...
Loading historical data...

KINEIS-5A Visibility forecast

Observer location: undefined°, undefined°

Span
Click to sort rows by Start time (UTC) header in descending order
Start Az.
Max El. time (UTC)
Max El. Az.
Max El.
End time (UTC)
End Az.
4 mins2025-06-22 22:25:18.986Z62.119° ENE2025-06-22 22:27:18.986Z89.335° E13.312°2025-06-22 22:29:18.986Z117.361° SE
7 mins2025-06-23 00:01:18.986Z357.679° N2025-06-23 00:04:18.986Z294.551° NW38.297°2025-06-23 00:08:18.986Z212.454° SW
7 mins2025-06-23 10:59:18.986Z180.428° SSW2025-06-23 11:02:18.986Z260.625° W42.245°2025-06-23 11:06:18.986Z340.419° N
|